Tracking 18980 objects as of 21-Feb-2018
HD Live streaming from Space Station
objects crossing your sky now

DMSP 5D-2 F14 DEB

Track DMSP 5D-2 F14 DEB now!
10-day predictions


NORAD ID: 24756
Int'l Code: 1997-012B
Perigee: 527.0 km
Apogee: 534.1 km
Inclination: 98.8 °
Period: 95.1 minutes
Semi major axis: 6901 km
RCS: 0.0487 m2 (small)
Launch date: April 4, 1997
Source: United States (US)
Launch site: AIR FORCE WESTERN TEST RANGE (AFWTR)

Note: This is SATELLITE DEBRIS
aabbcc
Your satellite tracking list
Your tracking list is empty




NASA's NSSDC Master Catalog

Two Line Element Set (TLE):
1 24756U 97012B   18050.98419274  .00015176  00000-0  83450-3 0  9994
2 24756  98.8154 203.3173 0005110 263.6889 220.3431 15.14196223103563
Source of the keplerian elements: AFSPC